Home > Weather > Yellowknife > Past weeks

Flag for Canada Weather for the Past 2 Weeks in Yellowknife, Northwest Territories, Canada

Now
-20 °F

Scattered clouds.


Feels Like: -40 °F
Forecast: -24 / -18 °F
Wind: 9 mph from East

Location: Yellowknife

Current Time: Feb 11, 2016 at 11:22:08 AM

Latest Report: Feb 11, 2016 at 11:00 AM


Visibility: 15 mi

Pressure: 30.77 "Hg

Humidity: 75%

Dew point: -26 °F

Location of YellowknifeLocation

Historic Weather in Yellowknife — Graph

°F

Yellowknife Temperature Yesterday

Maximum temperature yesterday: -15 °F (at 3:00 PM)
Minimum temperature yesterday: -27 °F (at 7:00 AM)
Average temperature yesterday: -22 °F

High & Low Weather Summary for the Past Weeks

 TemperatureHumidityPressure
High16 °F (Jan 28, 8:00 PM)92% (Jan 28, 3:00 AM)30.74 "Hg (Jan 28, 3:00 AM)
Low-35 °F (Feb 4, 9:00 AM)66% (Feb 4, 5:00 AM)29.14 "Hg (Jan 28, 10:00 PM)
Average-8 °F79%30.04 "Hg
* Reported Jan 27 10:00 AM — Feb 11 10:00 AM, Yellowknife, Weather by CustomWeather, © 2016

Note: Actual official high and low records may vary slightly from our data, if they occured in-between our weather recording intervals... More about our weather records

Advertising

Yellowknife Weather History for the Previous 24 Hours

 ConditionsComfort  
Time TempWeatherWind HumidityBarometerVisibility
10:00 AM
Thu, Feb 11
-20 °FScattered clouds.7 mph68%30.74 "Hg15 mi
9:00 AM-22 °FScattered clouds.8 mph68%30.72 "Hg15 mi
8:00 AM-24 °FPassing clouds.7 mph75%30.70 "Hg15 mi
7:00 AM-24 °FPassing clouds.6 mph75%30.68 "Hg15 mi
6:00 AM-26 °FPassing clouds.5 mph75%30.66 "Hg15 mi
5:00 AM-26 °FClear.7 mph75%30.65 "Hg15 mi
4:00 AM-24 °FClear.10 mph68%30.64 "Hg15 mi
3:00 AM-24 °FClear.6 mph75%30.63 "Hg15 mi
2:00 AM-24 °FClear.5 mph75%30.62 "Hg15 mi
1:00 AM-22 °FClear.6 mph68%30.62 "Hg15 mi
12:00 AM-24 °FClear.6 mph75%30.63 "Hg15 mi
11:00 PM
Wed, Feb 10
-26 °FClear.5 mph75%30.64 "Hg15 mi
10:00 PM-26 °FClear.6 mph75%30.64 "Hg15 mi
9:00 PM-24 °FClear.3 mph75%30.65 "Hg15 mi
8:00 PM-22 °FClear.6 mph83%30.64 "Hg15 mi
7:00 PM-20 °FClear.6 mph75%30.65 "Hg15 mi
6:00 PM-18 °FPassing clouds.5 mph75%30.65 "Hg15 mi
5:00 PM-17 °FPassing clouds.7 mph76%30.66 "Hg15 mi
4:00 PM-15 °FPassing clouds.No wind69%30.67 "Hg15 mi
3:00 PM-15 °FPassing clouds.3 mph76%30.68 "Hg15 mi
2:00 PM-17 °FPassing clouds.No wind69%30.70 "Hg15 mi
1:00 PM-18 °FPassing clouds.3 mph69%30.70 "Hg15 mi
12:00 PM-22 °FPassing clouds.6 mph75%30.71 "Hg15 mi
11:00 AM-24 °FPassing clouds.5 mph75%30.71 "Hg15 mi
Weather by CustomWeather, © 2016

See weather overviewHow to use our weather pages